User: anonymous   Login
Location: Glencliff
(36.1226°N, 86.7183°W)
Time: 08:07:50
(UTC+00:00)
Language:

Resurs 1-3 - Orbit

View from above orbital plane
View from above orbital plane
View from above satellite
View from above satellite

Ground track
Ground track

The orbit data is extracted from the following two-line orbital elements,

1 23342U 94074A   19296.14328701  .00000029  00000-0  10788-4 0  9990
2 23342  97.9668 342.7098 0001199 119.0234 241.1097 14.79401973344622
Epoch (UTC): 23 October 2019 03:26:19
Eccentricity: 0.0001199
inclination: 97.9668°
perigee height: 630 km
apogee height: 632 km
right ascension of ascending node: 342.7098°
argument of perigee: 119.0234°
revolutions per day: 14.79401973
mean anomaly at epoch: 241.1097°
orbit number at epoch: 34462

The dashed part of the orbit path shows where the satellite is in the earth's shadow,  

DLR